Duluth, MN

2:36 AM CST on February 26, 2017 (GMT -0600)
Sky Harbor

Weather History for KDYT - March, 2013

Change the Weather History Date:

Wednesday, March 6, 2013

  Actual Average Record
Temperature  
Mean Temperature 18 °F -  
Max Temperature 28 °F 32 °F 65 °F (1987)
Min Temperature 8 °F 12 °F -16 °F (1955)
Degree Days  
Heating Degree Days 47    
Moisture  
Dew Point 12 °F    
Average Humidity 74    
Maximum Humidity 92    
Minimum Humidity 55    
Precipitation  
Precipitation 0.00 in - - ()
Sea Level Pressure  
Sea Level Pressure 30.36 in    
Wind  
Wind Speed 4 mph (WNW)    
Max Wind Speed 12 mph    
Max Gust Speed -    
Visibility 10 miles    
Events      
Averages and records for this station are not official NWS values.
T = Trace of Precipitation, MM = Missing Value Source: NWS Daily Summary

Daily Weather History Graph

Daily Weather History Graph

Search for Another Location

Airport or City:

Trip Planner

Search our weather history database for the weather conditions in past years. The results will help you decide how hot, cold, wet, or windy it might be!

Date:

Astronomy

Mar. 06, 2013 Rise Set
Actual Time 6:37 AM CST 6:01 PM CST
Civil Twilight 6:07 AM CST 6:31 PM CST
Nautical Twilight 5:32 AM CST 7:06 PM CST
Astronomical Twilight 4:57 AM CST 7:42 PM CST
Moon 3:03 AM CST (3/6) 12:28 PM CST (3/6)
Length of Visible Light 12h 24m
Length of Day
11h 23m
Waning Crescent, 29% of the Moon is Illuminated
Mar 6
Waning Crescent
Mar 11
New
Mar 19
First Quarter
Mar 27
Full
Apr 2
Last Quarter

Hourly Weather History & Observations

Time (CST) Temp. Windchill Dew Point Humidity Pressure Visibility Wind Dir Wind Speed Gust Speed Precip Events Conditions
12:13 AM 21.2 °F 16.4 °F 15.8 °F 80% 30.30 in 10.0 mi NNW 3.5 mph - N/A   Overcast
12:34 AM 19.4 °F 14.3 °F 15.8 °F 86% 30.31 in 10.0 mi NW 3.5 mph - N/A   Overcast
12:53 AM 14.0 °F 6.5 °F 8.6 °F 79% 30.32 in 10.0 mi WNW 4.6 mph - N/A   Overcast
1:13 AM 19.4 °F 12.8 °F 15.8 °F 86% 30.32 in 10.0 mi NW 4.6 mph - N/A   Overcast
1:34 AM 17.6 °F 12.3 °F 12.2 °F 79% 30.32 in 10.0 mi NW 3.5 mph - N/A   Overcast
1:53 AM 17.6 °F 10.7 °F 12.2 °F 79% 30.33 in 10.0 mi NW 4.6 mph - N/A   Mostly Cloudy
2:14 AM 17.6 °F - 12.2 °F 79% 30.32 in 10.0 mi Calm Calm - N/A   Scattered Clouds
2:34 AM 14.0 °F 2.9 °F 8.6 °F 79% 30.33 in 10.0 mi WNW 8.1 mph - N/A   Clear
2:53 AM 15.8 °F 7.2 °F 10.4 °F 79% 30.33 in 10.0 mi WNW 5.8 mph - N/A   Clear
3:14 AM 15.8 °F 7.2 °F 10.4 °F 79% 30.33 in 10.0 mi WNW 5.8 mph - N/A   Clear
3:34 AM 12.2 °F 1.7 °F 8.6 °F 85% 30.33 in 10.0 mi WNW 6.9 mph - N/A   Clear
3:53 AM 14.0 °F 5.1 °F 10.4 °F 86% 30.34 in 10.0 mi WNW 5.8 mph - N/A   Clear
4:14 AM 15.8 °F - 10.4 °F 79% 30.34 in 10.0 mi Calm Calm - N/A   Clear
4:34 AM 14.0 °F - 10.4 °F 86% 30.35 in 10.0 mi Calm Calm - N/A   Clear
4:53 AM 12.2 °F - 8.6 °F 85% 30.35 in 10.0 mi Calm Calm - N/A   Clear
5:13 AM 12.2 °F - 6.8 °F 79% 30.35 in 10.0 mi Calm Calm - N/A   Mostly Cloudy
5:34 AM 12.2 °F - 10.4 °F 92% 30.36 in 10.0 mi Calm Calm - N/A   Overcast
5:53 AM 12.2 °F - 8.6 °F 85% 30.36 in 10.0 mi Calm Calm - N/A   Mostly Cloudy
6:13 AM 8.6 °F - 6.8 °F 92% 30.37 in 10.0 mi Calm Calm - N/A   Scattered Clouds
6:33 AM 8.6 °F - 6.8 °F 92% 30.37 in 10.0 mi Calm Calm - N/A   Clear
6:53 AM 10.4 °F - 6.8 °F 85% 30.38 in 10.0 mi Calm Calm - N/A   Clear
7:13 AM 8.6 °F - 6.8 °F 92% 30.38 in 10.0 mi Calm Calm - N/A   Clear
7:33 AM 10.4 °F 2.2 °F 6.8 °F 85% 30.39 in 10.0 mi WNW 4.6 mph - N/A   Clear
7:54 AM 10.4 °F 4.0 °F 6.8 °F 85% 30.39 in 10.0 mi WSW 3.5 mph - N/A   Clear
8:13 AM 10.4 °F 2.2 °F 8.6 °F 92% 30.39 in 10.0 mi SSW 4.6 mph - N/A   Clear
8:33 AM 12.2 °F 6.1 °F 8.6 °F 85% 30.39 in 10.0 mi South 3.5 mph - N/A   Clear
8:54 AM 14.0 °F 8.2 °F 10.4 °F 86% 30.40 in 10.0 mi SW 3.5 mph - N/A   Clear
9:13 AM 15.8 °F 10.2 °F 10.4 °F 79% 30.39 in 10.0 mi WSW 3.5 mph - N/A   Clear
9:34 AM 17.6 °F 7.3 °F 12.2 °F 79% 30.40 in 10.0 mi West 8.1 mph - N/A   Clear
9:53 AM 19.4 °F 7.9 °F 12.2 °F 74% 30.40 in 10.0 mi WNW 10.4 mph - N/A   Clear
10:14 AM 21.2 °F 10.9 °F 14.0 °F 74% 30.39 in 10.0 mi NW 9.2 mph - N/A   Clear
10:33 AM 21.2 °F 10.1 °F 12.2 °F 68% 30.39 in 10.0 mi NW 10.4 mph - N/A   Clear
10:54 AM 21.2 °F 9.5 °F 12.2 °F 68% 30.38 in 10.0 mi WNW 11.5 mph - N/A   Clear
11:13 AM 21.2 °F 10.1 °F 12.2 °F 68% 30.38 in 10.0 mi WNW 10.4 mph - N/A   Clear
11:34 AM 23.0 °F 13.1 °F 14.0 °F 68% 30.38 in 10.0 mi NW 9.2 mph - N/A   Clear
11:53 AM 24.8 °F 14.0 °F 15.8 °F 69% 30.38 in 10.0 mi NW 11.5 mph - N/A   Clear
12:13 PM 24.8 °F 16.1 °F 15.8 °F 69% 30.37 in 10.0 mi NW 8.1 mph - N/A   Clear
12:34 PM 24.8 °F 17.9 °F 14.0 °F 64% 30.37 in 10.0 mi NW 5.8 mph - N/A   Clear
12:53 PM 24.8 °F 16.9 °F 15.8 °F 69% 30.36 in 10.0 mi NW 6.9 mph - N/A   Scattered Clouds
1:13 PM 24.8 °F 16.9 °F 15.8 °F 69% 30.36 in 10.0 mi NW 6.9 mph - N/A   Scattered Clouds
1:34 PM 24.8 °F 16.1 °F 14.0 °F 64% 30.35 in 10.0 mi WNW 8.1 mph - N/A   Scattered Clouds
1:53 PM 26.6 °F 22.6 °F 14.0 °F 59% 30.34 in 10.0 mi NW 3.5 mph - N/A   Scattered Clouds
2:13 PM 26.6 °F 20.0 °F 15.8 °F 64% 30.34 in 10.0 mi WNW 5.8 mph - N/A   Clear
2:34 PM 26.6 °F - 15.8 °F 64% 30.34 in 10.0 mi Calm Calm - N/A   Clear
2:53 PM 26.6 °F - 15.8 °F 64% 30.34 in 10.0 mi Calm Calm - N/A   Scattered Clouds
3:14 PM 26.6 °F 20.0 °F 15.8 °F 64% 30.34 in 10.0 mi NNW 5.8 mph - N/A   Scattered Clouds
3:34 PM 26.6 °F 21.2 °F 15.8 °F 64% 30.34 in 10.0 mi NW 4.6 mph - N/A   Clear
3:53 PM 28.4 °F 21.2 °F 15.8 °F 59% 30.34 in 10.0 mi NW 6.9 mph - N/A   Clear
4:14 PM 26.6 °F 21.2 °F 15.8 °F 64% 30.33 in 10.0 mi NNW 4.6 mph - N/A   Scattered Clouds
4:34 PM 26.6 °F 19.1 °F 15.8 °F 64% 30.33 in 10.0 mi NW 6.9 mph - N/A   Clear
4:53 PM 24.8 °F 16.1 °F 14.0 °F 64% 30.34 in 10.0 mi NW 8.1 mph - N/A   Clear
5:14 PM 26.6 °F 20.0 °F 14.0 °F 59% 30.34 in 10.0 mi WNW 5.8 mph - N/A   Clear
5:33 PM 26.6 °F 20.0 °F 14.0 °F 59% 30.34 in 10.0 mi NW 5.8 mph - N/A   Clear
5:54 PM 26.6 °F 21.2 °F 12.2 °F 55% 30.34 in 10.0 mi NW 4.6 mph - N/A   Clear
6:13 PM 24.8 °F 19.1 °F 14.0 °F 64% 30.34 in 10.0 mi WNW 4.6 mph - N/A   Clear
6:34 PM 24.8 °F 16.9 °F 12.2 °F 59% 30.34 in 10.0 mi NW 6.9 mph - N/A   Clear
6:53 PM 24.8 °F 17.9 °F 12.2 °F 59% 30.35 in 10.0 mi NW 5.8 mph - N/A   Clear
7:14 PM 21.2 °F 13.6 °F 10.4 °F 63% 30.35 in 10.0 mi WNW 5.8 mph - N/A   Clear
7:34 PM 23.0 °F 15.8 °F 12.2 °F 63% 30.35 in 10.0 mi WNW 5.8 mph - N/A   Clear
7:53 PM 21.2 °F 14.9 °F 12.2 °F 68% 30.36 in 10.0 mi WNW 4.6 mph - N/A   Clear
8:14 PM 17.6 °F 9.3 °F 10.4 °F 73% 30.36 in 10.0 mi WNW 5.8 mph - N/A   Clear
8:33 PM 19.4 °F 12.8 °F 12.2 °F 74% 30.36 in 10.0 mi WNW 4.6 mph - N/A   Clear
8:53 PM 19.4 °F 12.8 °F 10.4 °F 68% 30.36 in 10.0 mi WNW 4.6 mph - N/A   Clear
9:14 PM 19.4 °F 12.8 °F 12.2 °F 74% 30.37 in 10.0 mi NW 4.6 mph - N/A   Clear
9:33 PM 17.6 °F 10.7 °F 10.4 °F 73% 30.37 in 10.0 mi West 4.6 mph - N/A   Clear
9:53 PM 15.8 °F - 8.6 °F 73% 30.36 in 10.0 mi Calm Calm - N/A   Clear
10:14 PM 19.4 °F - 12.2 °F 74% 30.36 in 10.0 mi Calm Calm - N/A   Clear
10:33 PM 17.6 °F 10.7 °F 10.4 °F 73% 30.36 in 10.0 mi North 4.6 mph - N/A   Clear
10:54 PM 17.6 °F 8.2 °F 10.4 °F 73% 30.36 in 10.0 mi NNW 6.9 mph - N/A   Clear
11:13 PM 17.6 °F 10.7 °F 10.4 °F 73% 30.37 in 10.0 mi NW 4.6 mph - N/A   Clear
11:33 PM 14.0 °F 8.2 °F 8.6 °F 79% 30.37 in 10.0 mi West 3.5 mph - N/A   Clear
11:53 PM 14.0 °F - 8.6 °F 79% 30.37 in 10.0 mi Calm Calm - N/A   Clear